Miscellaneous Local Product
Issued by NWS North Platte, NE

Home | Current Version | Previous Version | Graphics & Text | Print | Product List | Glossary On
Versions: 1 2 3 4 5 6 7 8 9 10 11 12 13 14 15 16 17 18 19 20 21 22 23 24 25 26 27 28 29 30 31 32 33 34 35 36 37 38 39 40 41 42 43 44 45 46 47 48 49 50
280
AXUS43 KLBF 041710
MISLBF


WESTERN AND NORTH CENTRAL NEBRASKA HOURLY WEATHER ROUNDUP
NATIONAL WEATHER SERVICE NORTH PLATTE NE
1200 PM CDT WED MAY 04 2016

NOTE: "FAIR" INDICATES FEW OR NO CLOUDS BELOW 12,000 FEET WITH NO
SIGNIFICANT WEATHER AND/OR OBSTRUCTIONS TO VISIBILITY.

NOTE: STATIONS NOT REPORTING VARIABLES SUCH AS SKY/WEATHER OR
PRESSURE ARE PROVIDED BY RAWS AND APRS NETWORKS AND ARE NOT UNDER
NATIONAL WEATHER SERVICE QUALITY CONTROL.

...OBSERVATIONS IN AND NEAR THE EASTERN PANHANDLE OF NEBRASKA...

CITY           SKY/WX    TMP DP  RH WIND       PRES   REMARKS
PINE RIDGE     SUNNY     70  41  34 CALM      30.16F
CHADRON        SUNNY     70  42  36 CALM      30.16F
ALLIANCE       SUNNY     68  39  34 CALM      30.19S
SIDNEY         SUNNY     70  38  31 CALM      30.22S
CRESCENT LAKE    N/A     70  39  31 NW6         N/A
BIG SPRINGS      N/A     64  47  54 N3          N/A
$$

...OBSERVATIONS IN NORTHERN NEBRASKA AND FAR SOUTHERN SOUTH DAKOTA...

CITY           SKY/WX    TMP DP  RH WIND       PRES   REMARKS
WINNER         FAIR      65  32  29 N7        30.14S
VALENTINE      SUNNY     67  31  26 MISG      30.15S
THEDFORD       SUNNY     68  35  29 N5        30.16S
AINSWORTH      SUNNY     64  31  29 N8G18     30.15S
O`NEILL        SUNNY     62  31  31 N13       30.14S
ORD            SUNNY     64  36  35 N12       30.12R
BROKEN BOW     SUNNY     66  38  35 N17       30.14R
BUTTE            N/A     59  31  35 NW14        N/A
CHAMBERS         N/A     64  36  35 N6G13       N/A
EWING            N/A     63  39  41 N7G15       N/A
$$

...OBSERVATIONS IN SOUTHWEST NEBRASKA AND FAR NORTHEAST COLORADO...

CITY           SKY/WX    TMP DP  RH WIND       PRES   REMARKS
HOLYOKE        FAIR      73  43  33 NE10      30.21S
IMPERIAL       SUNNY     70  40  33 N9        30.18F
OGALLALA       SUNNY     69  37  31 CALM      30.18S
NORTH PLATTE   SUNNY     68  43  40 VRB3      30.15S
MCCOOK         SUNNY     70  44  39 NE7       30.16S
LEXINGTON      SUNNY     65  37  34 N9G17     30.15S
PAXTON           N/A     63  47  57 CALM        N/A
STAPLETON        N/A     68  43  39 CALM        N/A
GOTHENBURG       N/A     64  33  32 NW6         N/A
CALLAWAY         N/A     61  39  44 N7          N/A
$$

...OBSERVATIONS IN CENTRAL LINCOLN COUNTY AREA...

CITY           SKY/WX    TMP DP  RH WIND       PRES   REMARKS
N.P. AIRPORT   SUNNY     68  43  40 VRB3      30.15S
N.P. DOWNTOWN    N/A     69  41  36 NW5G12      N/A
N.P. SOUTHEAST   N/A     69  41  36 NW3         N/A
N.P. HILLCREST   N/A     69  39  34 N12G18      N/A
$$

...SOME OBSERVATIONS FROM AROUND THE REGION...

CITY           SKY/WX    TMP DP  RH WIND       PRES   REMARKS
DENVER         MOSUNNY   67  31  26 VRB3      30.25F
LARAMIE        SUNNY     58  28  32 VRB6      30.31S
CHEYENNE       SUNNY     66  31  27 CALM      30.26F
SCOTTSBLUFF    SUNNY     68  41  37 CALM      30.20S
RAPID CITY     SUNNY     71  41  33 S8        30.14S
BISMARCK       SUNNY     69  34  27 S5        30.09F
PIERRE         SUNNY     63  35  35 VRB3      30.12S
SIOUX FALLS    MOSUNNY   61  39  44 NW15      30.09R
OMAHA          MOSUNNY   64  41  42 N16       30.05S
GRAND ISLAND   SUNNY     63  33  32 N13       30.13R
KANSAS CITY    SUNNY     66  41  40 NW15G22   30.00R
WICHITA        SUNNY     71  37  28 N17G24    30.07R
OKLAHOMA CITY  SUNNY     77  50  38 NW12      30.06S
DALLAS         SUNNY     77  51  40 NW12      30.06S
AMARILLO       SUNNY     71  35  26 N9        30.22S
DODGE CITY     SUNNY     70  43  37 N14       30.15S
HAYS           SUNNY     68  39  34 NE9       30.14R
GOODLAND       SUNNY     71  39  31 N10G18    30.19S
$$




USA.gov is the U.S. government's official web portal to all federal, state and local government web resources and services.